Regional Weather Roundup
Issued by NWS Cleveland, OH

Home | Current Version | Previous Version | Graphics & Text | Print | Product List | Glossary On
Versions: 1 2 3 4 5 6 7 8 9 10 11 12 13 14 15 16 17 18 19 20 21 22 23 24 25 26 27 28 29 30 31 32 33 34 35 36 37 38 39 40 41 42 43 44 45 46 47 48 49 50
000
ASUS41 KCLE 212000
RWRCLE
OHIO REGIONAL WEATHER ROUNDUP
NATIONAL WEATHER SERVICE WILMINGTON, OH
300 PM EST FRI NOV 21 2014

NOTE: "FAIR" INDICATES FEW OR NO CLOUDS BELOW 12,000 FEET WITH NO
SIGNIFICANT WEATHER AND/OR OBSTRUCTIONS TO VISIBILITY.

OHZ001>008-015>018-024>027-034-035-043-044-212100-
   NORTHWEST OHIO

CITY           SKY/WX    TMP DP  RH WIND       PRES   REMARKS
DEFIANCE       SUNNY     27  13  55 S10       30.46F WCI  17
FINDLAY        SUNNY     27  13  55 S8        30.46F WCI  19
TOLEDO EXPRESS SUNNY     26  12  55 SW9       30.46F WCI  17
TOLEDO METCALF PTSUNNY   26  13  57 SW13      30.48S WCI  15
LIMA           SUNNY     28  12  51 S8        30.45F WCI  20
$$

OHZ009>014-019>023-028>033-038-089-212100-
   NORTHEAST OHIO

CITY           SKY/WX    TMP DP  RH WIND       PRES   REMARKS
CLE-HOPKINS    MOSUNNY   23   9  55 SW13      30.50S WCI  11
CLE-LAKEFRONT  PTSUNNY   25  11  55 S9        30.48F WCI  15
CUY CO. ARPT   PTSUNNY   27  18  69 SW9       30.47S WCI  17
LORAIN-ELYRIA  PTSUNNY   24  11  57 SW9       30.48S WCI  14
ASHTABULA      PTSUNNY   23  12  62 W9        30.46R WCI  13
AKRON-CANTON   MOSUNNY   24   8  50 SW8       30.46R WCI  15
WOOSTER        NOT AVBL
MANSFIELD      SUNNY     23  10  57 SW6       30.44F WCI  16
YOUNGSTOWN     PTSUNNY   23  10  57 W8        30.44S WCI  14
$$

OHZ042-051>053-060>062-070>072-077>081-212100-
  SOUTHWEST OHIO

CITY           SKY/WX    TMP DP  RH WIND       PRES   REMARKS
CINC-COVINGTON SUNNY     33   9  36 SE5       30.45F WCI  29
CINC-LUNKEN    SUNNY     34  10  37 SE3       30.49F
HAMILTON       SUNNY     33  10  38 E5        30.48F WCI  29
DAYTON         NOT AVBL
WRIGHT-PAT AFB SUNNY     31   9  40 SE5       30.47F WCI  26
DAYTON GENERAL SUNNY     30  10  43 S7        30.45F WCI  23
WILMINGTON     SUNNY     26  10  50 SE5       30.47S WCI  20
$$

OHZ036-037-039>041-045>050-054>059-063>069-073>076-082>088-212100-
  CENTRAL AND SOUTHEAST OHIO

CITY           SKY/WX    TMP DP  RH WIND       PRES   REMARKS
COLUMBUS       SUNNY     27  11  51 S5        30.49F WCI  22
OSU AIRPORT    SUNNY     27   9  46 W5        30.48F WCI  22
BOLTON FIELD   SUNNY     27  10  50 S3        30.49F
RICKENBACK AFB NOT AVBL
NEWARK         SUNNY     27  10  49 S8        30.49S WCI  19
MARION         SUNNY     25  10  53 SW7       30.47F WCI  17
LANCASTER      SUNNY     27   9  46 SW5       30.50F WCI  22
ZANESVILLE     SUNNY     28   9  44 W7        30.49S WCI  21
NEW PHILLY     SUNNY     26  10  50 SW5       30.50S WCI  20
$$


USA.gov is the U.S. government's official web portal to all federal, state and local government web resources and services.